KE5KUL-13 Weather Reports


time (UTC)temp
C
wind
direction
speed
KPH
gust
KPH
rain 1hr
cm
rain 24hr
cm
rain mn
cm
humidity
%
barometer
mb
20260510154018 12 23 9.7 25.7 0.00 0.00 0.00 88 1021.0
20260510153018 12 23 16.1 32.2 0.00 0.00 0.00 87 1020.9
20260510152018 12 23 11.3 29.0 0.00 0.00 0.00 87 1020.7
20260510151017 13 45 8.0 20.9 0.00 0.00 0.00 87 1020.6
20260510150018 13 23 9.7 22.5 0.00 0.00 0.00 87 1020.3
20260510145018 13 23 8.0 19.3 0.00 0.00 0.00 87 1019.9
20260510144018 13 23 9.7 19.3 0.00 0.00 0.00 86 1019.6
20260510143017 13 23 6.4 14.5 0.00 0.00 0.00 85 1019.7
20260510142018 13 45 6.4 19.3 0.00 0.00 0.00 85 1019.9
20260510141018 13 45 9.7 25.7 0.00 0.00 0.00 83 1019.8
20260510140018 14 23 9.7 27.4 0.00 0.00 0.00 81 1019.9
20260510135017 14 23 11.3 25.7 0.00 0.00 0.00 81 1019.8
20260510134017 14 45 8.0 19.3 0.00 0.00 0.00 80 1019.9
20260510133018 14 23 6.4 17.7 0.00 0.00 0.00 81 1019.9
20260510132018 14 23 11.3 30.6 0.00 0.00 0.00 80 1019.5
20260510131017 14 23 8.0 20.9 0.00 0.00 0.00 80 1019.5
20260510130017 14 23 11.3 27.4 0.00 0.00 0.00 80 1019.4
20260510125017 14 45 6.4 17.7 0.00 0.00 0.00 79 1019.0
20260510124017 15 23 11.3 24.1 0.00 0.00 0.00 78 1019.0
20260510123017 15 23 9.7 20.9 0.00 0.00 0.00 79 1018.8
20260510122018 15 23 6.4 19.3 0.00 0.00 0.00 81 1018.9
20260510121018 15 45 4.8 19.3 0.00 0.00 0.00 80 1018.8
20260510120017 15 23 4.8 12.9 0.00 0.00 0.00 80 1018.6
20260510115017 15 45 4.8 14.5 0.00 0.00 0.00 80 1018.3
20260510114017 15 45 3.2 9.7 0.00 0.00 0.00 79 1018.5
20260510113017 16 23 3.2 16.1 0.00 0.00 0.00 78 1018.6
20260510112017 16 45 3.2 8.0 0.00 0.00 0.00 78 1018.4
20260510111017 16 45 1.6 9.7 0.00 0.00 0.00 77 1017.9
20260510110017 16 113 3.2 9.7 0.00 0.00 0.00 77 1017.9
20260510105017 16 113 4.8 16.1 0.00 0.00 0.00 78 1018.0
20260510104017 16 113 3.2 11.3 0.00 0.00 0.00 78 1017.9
20260510103017 16 23 3.2 8.0 0.00 0.00 0.00 78 1017.9
20260510102017 16 135 1.6 8.0 0.00 0.00 0.00 78 1017.9
20260510101017 16 113 3.2 11.3 0.00 0.00 0.00 78 1017.8
20260510100018 16 23 4.8 14.5 0.00 0.00 0.00 78 1017.7
20260510095017 16 113 3.2 12.9 0.00 0.00 0.00 78 1017.3
20260510094017 16 135 1.6 6.4 0.00 0.00 0.00 78 1017.4
20260510093019 16 113 3.2 8.0 0.00 0.00 0.00 77 1017.3
20260510092017 16 135 4.8 14.5 0.00 0.00 0.00 77 1016.8
20260510091017 16 113 3.2 11.3 0.00 0.00 0.00 76 1016.6
20260510090017 16 113 8.0 19.3 0.00 0.00 0.00 76 1016.5
20260510085017 16 113 6.4 16.1 0.00 0.00 0.00 75 1016.5
20260510084017 16 135 6.4 19.3 0.00 0.00 0.00 74 1016.2
20260510083019 17 135 6.4 17.7 0.00 0.00 0.00 74 1016.4
20260510082019 17 135 6.4 12.9 0.00 0.00 0.00 73 1016.3
20260510081019 17 135 6.4 16.1 0.00 0.00 0.00 72 1016.2
20260510080017 17 135 6.4 20.9 0.00 0.00 0.00 71 1015.9
20260510075017 18 135 4.8 16.1 0.00 0.00 0.00 70 1015.2
20260510074019 18 113 6.4 19.3 0.00 0.00 0.00 70 1015.0
20260510073018 18 135 4.8 14.5 0.00 0.00 0.00 70 1014.6
20260510072017 19 68 4.8 11.3 0.00 0.00 0.00 69 1014.8
20260510071019 19 113 3.2 11.3 0.00 0.00 0.00 70 1014.6
20260510070019 19 45 3.2 9.7 0.00 0.00 0.00 69 1015.0
20260510065018 20 23 3.2 12.9 0.00 0.00 0.00 69 1015.4
20260510064017 20 23 6.4 17.7 0.00 0.00 0.00 68 1015.5
20260510063019 20 23 3.2 9.7 0.00 0.00 0.00 68 1015.0
20260510062019 20 135 3.2 12.9 0.00 0.00 0.00 67 1015.0
20260510061019 20 68 1.6 6.4 0.00 0.00 0.00 66 1015.1
20260510060019 21 113 3.2 12.9 0.00 0.00 0.00 65 1015.4
20260510055019 21 113 4.8 22.5 0.00 0.00 0.00 64 1015.3
20260510054017 21 113 3.2 9.7 0.00 0.00 0.00 63 1015.0
20260510053018 21 23 3.2 12.9 0.00 0.00 0.00 62 1014.9
20260510052018 21 113 1.6 6.4 0.00 0.00 0.00 61 1015.0
20260510051019 21 113 1.6 6.4 0.00 0.00 0.00 60 1014.5
20260510050019 22 135 1.6 6.4 0.00 0.00 0.00 59 1014.5
20260510045017 22 113 1.6 6.4 0.00 0.00 0.00 57 1014.1
20260510044020 22 113 1.6 6.4 0.00 0.00 0.00 55 1014.2
20260510043017 22 113 1.6 4.8 0.00 0.00 0.00 52 1014.1
20260510042017 22 135 1.6 4.8 0.00 0.00 0.00 50 1013.8
20260510041018 23 0.0 3.2 0.00 0.00 0.00 47 1013.6
20260510040017 23 113 1.6 6.4 0.00 0.00 0.00 44 1013.6
20260510035017 24 113 1.6 6.4 0.00 0.00 0.00 41 1013.8
20260510034017 25 113 4.8 11.3 0.00 0.00 0.00 29 1013.7
20260510033017 25 23 1.6 6.4 0.00 0.00 0.00 23 1013.2
20260510032017 25 68 1.6 8.0 0.00 0.00 0.00 21 1013.0
20260510031017 25 90 1.6 4.8 0.00 0.00 0.00 19 1012.7
20260510030017 24 248 3.2 14.5 0.00 0.00 0.00 20 1012.1
20260510025017 23 68 1.6 8.0 0.00 0.00 0.00 21 1011.7
20260510024017 23 0.0 3.2 0.00 0.00 0.00 20 1011.1
20260510023017 24 0.0 0.0 0.00 0.00 0.00 19 1010.7
20260510022017 25 0.0 0.0 0.00 0.00 0.00 18 1010.4
20260510021017 25 0.0 1.6 0.00 0.00 0.00 17 1009.9
20260510020018 26 0.0 0.0 0.00 0.00 0.00 17 1009.7
20260510015017 27 0.0 1.6 0.00 0.00 0.00 16 1009.4
20260510014019 27 0.0 1.6 0.00 0.00 0.00 16 1009.4
20260510013017 28 0.0 0.0 0.00 0.00 0.00 15 1009.2
20260510012017 29 0.0 0.0 0.00 0.00 0.00 14 1008.9
20260510011017 30 0.0 4.8 0.00 0.00 0.00 14 1008.7
20260510010019 31 0.0 4.8 0.00 0.00 0.00 13 1008.5
20260510005017 31 0.0 3.2 0.00 0.00 0.00 12 1008.4
20260510004017 32 45 1.6 6.4 0.00 0.00 0.00 12 1008.3
20260510003017 32 45 4.8 8.0 0.00 0.00 0.00 11 1008.7
20260510002017 33 0.0 0.0 0.00 0.00 0.00 10 1008.5
20260510001019 34 45 1.6 4.8 0.00 0.00 0.00 10 1008.8
20260510000019 34 45 1.6 4.8 0.00 0.00 0.00 10 1009.2
20260509235019 35 315 4.8 14.5 0.00 0.00 0.00 9 1009.3
20260509234017 35 68 1.6 8.0 0.00 0.00 0.00 9 1009.6
20260509233019 35 315 6.4 16.1 0.00 0.00 0.00 10 1009.7
20260509232019 35 23 6.4 14.5 0.00 0.00 0.00 9 1009.8
20260509231018 35 315 4.8 12.9 0.00 0.00 0.00 9 1009.9
20260509230019 36 248 4.8 11.3 0.00 0.00 0.00 9 1009.9
20260509225019 36 338 4.8 8.0 0.00 0.00 0.00 9 1010.2
20260509224019 36 23 6.4 12.9 0.00 0.00 0.00 9 1010.6
20260509223018 36 225 6.4 16.1 0.00 0.00 0.00 9 1010.8
20260509222018 36 338 6.4 17.7 0.00 0.00 0.00 9 1010.9
20260509221019 36 338 6.4 14.5 0.00 0.00 0.00 10 1011.1
20260509220019 36 315 6.4 14.5 0.00 0.00 0.00 10 1011.1
20260509215018 36 0 6.4 14.5 0.00 0.00 0.00 10 1011.1
20260509214017 36 315 8.0 19.3 0.00 0.00 0.00 11 1011.1
20260509213018 36 270 4.8 12.9 0.00 0.00 0.00 12 1011.5
20260509212019 36 270 6.4 16.1 0.00 0.00 0.00 12 1011.8
20260509211018 36 293 9.7 19.3 0.00 0.00 0.00 11 1012.0
20260509210018 36 315 8.0 19.3 0.00 0.00 0.00 12 1011.9
20260509205019 36 315 6.4 16.1 0.00 0.00 0.00 13 1012.2
20260509204019 36 315 8.0 16.1 0.00 0.00 0.00 15 1012.2
20260509203018 35 315 8.0 17.7 0.00 0.00 0.00 15 1012.5
20260509202019 35 248 8.0 19.3 0.00 0.00 0.00 16 1012.4
20260509201019 35 225 6.4 14.5 0.00 0.00 0.00 17 1012.4
20260509200018 35 293 9.7 22.5 0.00 0.00 0.00 17 1012.6
20260509195018 34 270 8.0 19.3 0.00 0.00 0.00 18 1012.6
20260509194018 33 180 4.8 11.3 0.00 0.00 0.00 19 1012.7
20260509193017 33 248 9.7 20.9 0.00 0.00 0.00 19 1013.0
20260509192018 32 270 8.0 17.7 0.00 0.00 0.00 20 1013.1
20260509191018 32 225 9.7 22.5 0.00 0.00 0.00 19 1013.2
20260509190018 33 225 6.4 14.5 0.00 0.00 0.00 20 1013.5
20260509185018 33 248 9.7 19.3 0.00 0.00 0.00 19 1013.7
20260509184018 32 225 3.2 12.9 0.00 0.00 0.00 20 1013.5
20260509183018 32 248 8.0 24.1 0.00 0.00 0.00 20 1013.7
20260509182018 31 270 9.7 22.5 0.00 0.00 0.00 21 1013.6
20260509181018 31 225 8.0 17.7 0.00 0.00 0.00 22 1014.1
20260509180018 31 203 4.8 14.5 0.00 0.00 0.00 24 1014.0
20260509175018 31 248 6.4 17.7 0.00 0.00 0.00 24 1014.4
20260509174018 30 248 4.8 12.9 0.00 0.00 0.00 26 1014.1
20260509173018 29 180 6.4 14.5 0.00 0.00 0.00 28 1014.1
20260509172028 29 158 9.7 22.5 0.00 0.00 0.00 29 1014.3
20260509171018 28 225 6.4 17.7 0.00 0.00 0.00 31 1014.4
20260509170018 28 158 9.7 20.9 0.00 0.00 0.00 31 1014.6
20260509165018 27 158 8.0 16.1 0.00 0.00 0.00 31 1014.7
20260509164018 27 158 11.3 22.5 0.00 0.00 0.00 32 1014.8
20260509163018 27 158 6.4 14.5 0.00 0.00 0.00 34 1015.1
20260509162018 26 158 9.7 24.1 0.00 0.00 0.00 34 1015.0
20260509161018 26 158 9.7 22.5 0.00 0.00 0.00 34 1015.2
20260509160018 26 158 11.3 22.5 0.00 0.00 0.00 34 1015.3
20260509155018 26 180 8.0 16.1 0.00 0.00 0.00 36 1015.6